This demonstration page uses our WeatherBlox Daily Observations layout. Learn more.

Left ArrowRight Arrow

36.17497, -115.13722

Hourly Observations for August 25, 2017

Temp ( °F °C ) Dew Point ( °F °C ) Humidity (%) Winds ( mph kmh ) Pressure ( in mb ) Visibility ( mi km ) Precip ( " mm )
12:53 am 00:53 Clear 79 26.1 58 14.4 49 49 NW 5 7 29.82 1010 10 16.0934 N/A
1:53 am 01:53 Clear 77 25 59 15 54 54 N N/A 29.82 1010 10 16.0934 N/A
2:53 am 02:53 Clear 75 23.9 59 15 58 58 NNW 5 7 29.82 1010 10 16.0934 N/A
3:53 am 03:53 Clear 75 23.9 59 15 58 58 N 5 7 29.83 1010 10 16.0934 N/A
4:53 am 04:53 Clear 75 23.9 59 15 58 58 N N/A 29.83 1010 10 16.0934 N/A
5:53 am 05:53 Clear 73 22.8 59 15 62 62 N 5 7 29.85 1011 10 16.0934 N/A
6:53 am 06:53 Sunny 76 24.4 58 14.4 54 54 NW 7 11 29.87 1012 10 16.0934 N/A
7:53 am 07:53 Sunny 80 26.7 58 14.4 47 47 N N/A 29.88 1012 10 16.0934 N/A
8:53 am 08:53 Sunny 84 28.9 54 12.2 36 36 N N/A 29.89 1012 10 16.0934 N/A
9:53 am 09:53 Sunny 87 30.6 55 12.8 34 34 SE 6 9 29.89 1012 10 16.0934 N/A
10:53 am 10:53 Sunny 90 32.2 51 10.6 26 26 SE 6 9 29.89 1012 10 16.0934 N/A
11:53 am 11:53 Sunny 94 34.4 50 10 22 22 ESE 7 11 29.88 1012 10 16.0934 N/A
12:53 pm 12:53 Sunny 94 34.4 52 11.1 24 24 ESE 8 13 29.85 1011 10 16.0934 N/A
1:53 pm 13:53 Sunny 98 36.7 51 10.6 20 20 E 7 11 29.83 1010 10 16.0934 N/A
2:53 pm 14:53 Sunny 98 36.7 47 8.3 17 17 VRB 3 6 29.81 1010 10 16.0934 N/A
3:53 pm 15:53 Sunny 99 37.2 48 8.9 18 18 N N/A 29.8 1009 10 16.0934 N/A
4:53 pm 16:53 Sunny 99 37.2 47 8.3 17 17 S 6 9 29.8 1009 10 16.0934 N/A
5:16 pm 17:16 Sunny 98 36.7 52 11.1 21 21 WSW 20 31 29.62 1003 10 16.0934 N/A
5:53 pm 17:53 Sunny 98 36.7 50 10 20 20 WSW 14 22 29.8 1009 10 16.0934 N/A
6:53 pm 18:53 Sunny 96 35.6 50 10 21 21 W 7 11 29.8 1009 10 16.0934 N/A
7:53 pm 19:53 Clear 95 35 51 10.6 23 23 N N/A 29.8 1009 10 16.0934 N/A
8:53 pm 20:53 Clear 92 33.3 51 10.6 25 25 N N/A 29.82 1010 10 16.0934 N/A
9:53 pm 21:53 Clear 91 32.8 52 11.1 26 26 WNW 3 6 29.83 1010 10 16.0934 N/A
10:53 pm 22:53 Clear 87 30.6 54 12.2 32 32 NNW 3 6 29.84 1011 10 16.0934 N/A
11:53 pm 23:53 Clear 86 30 55 12.8 35 35 NW 6 9 29.85 1011 10 16.0934 N/A

Powered by AerisWeather